sat.trackr.live / text

‹ back to catalog

STARLINK-2102

NORAD 47382 · 2021-005AK

PAYLOAD ACTIVE UNKNOWN

§ Identity

Operator
Country
US
Launch date
2021-01-20
Launch site
AFETR
Launch vehicle
Mass (kg)
RCS (m²)

Purposes: comms

External: N2YO · Heavens-Above · Gunter

§ Orbital elements

Epoch: 2026-09-08T09:51:24.124896Z

Period
94.01 min
Inclination
53.1584°
Eccentricity
0.0001345
Mean motion
15.31712617 rev/d
Perigee alt
469.8 km
Apogee alt
471.6 km
Semi-major
6,848.8 km
B*
1.1621e-4
RAAN
256.2126°
Arg perigee
88.1168°
Mean anomaly
271.9987°
Rev number
31,153

§ Raw data

STARLINK-21021 47382U 21005AK  26251.41069589  .00003244  00000+0  11621-3 0  99962 47382  53.1584 256.2126 0001345  88.1168 271.9987 15.31712617311531

JSON: /api/v1/satellites/47382 · /tle

For live sub-satellite position, see the globe view (requires WebGL).

§ Visibility from observer

Set your observer location to see the next 7 days of passes ≥ 10°. The values pass through the URL so the page stays shareable.

No JS? Fill the form by hand. The geolocation button needs JavaScript.